KUIPER-00049

Last updated on Thu Jul 03 2025 00:02:08 GMT+0000 (Coordinated Universal Time)

1 64509U 25134K 25183.58335648 .00000899 00000+0 37343-4 0 9999 2 64509 51.8717 286.9844 0007646 141.2872 306.6818 15.34875831 2632
UTC large
Height (km)
Speed (km/s)
/
Latitude / Longitude
Inclination (degrees)
Orbital Period (minutes)
Azimuth
Elevation
Range (km)
Doppler Factor

Next 0 passes for location: London (51.5072 / 0.1276)

Sorry there are no passes over London.